Station NWPR1 - 8452660 - Newport, RI Image indicating link to RSS feed of recent meteorological observations for station NWPR1


Conditions at NWPR1 as of
(3:30 pm EDT)
1930 GMT on 07/19/2024:
     

Click on the graph icon in the table below to see a time series plot of the last five days of that observation.

5-day plot - Wind Direction Wind Direction (WDIR):SSW ( 200 deg true )
5-day plot - Wind Speed Wind Speed (WSPD): 8.0 kts
5-day plot - Wind Gust Wind Gust (GST): 11.1 kts
5-day plot - Atmospheric Pressure Atmospheric Pressure (PRES):30.08 in
5-day plot - Air Temperature Air Temperature (ATMP): 74.8 °F
5-day plot - Water Temperature Water Temperature (WTMP): 73.8 °F
5-day plot - Wind Speed at 10 Meters Wind Speed at 10 meters (WSPD10M): 9.7 kts
5-day plot - Wind Speed at 20 Meters Wind Speed at 20 meters (WSPD20M): 9.7 kts
5-day plot -  Wind Speed, Wind Gust and Atmospheric Pressure Combined plot of Wind Speed, Gust, and Air Pressure
NOS Water Level Observation Network Water Level
Previous observations
TIME
(EDT)
5-day plot - Wind Direction
WDIR
 
5-day plot - Wind Speed
WSPD
kts
5-day plot - Wind Gust
GST
kts
5-day plot - Wave Height
WVHT
ft
5-day plot - Dominant Wave Period
DPD
sec
5-day plot - Average Wave Period
APD
sec
5-day plot - Mean Wave Direction
MWD
 
5-day plot - Atmospheric Pressure
PRES
in
5-day plot - Pressure Tendency
PTDY
in
5-day plot - Air Temperature
ATMP
°F
5-day plot - Water Temperature
WTMP
°F
5-day plot - Dew Point
DEWP
°F
5-day plot - Salinity
SAL
psu
5-day plot - Visibility
VIS
nmi
5-day plot - Tide (above MLLW)
TIDE
ft
2024-07-19 03:24 pm S 8.9 9.9----30.08- 74.7 73.8----
2024-07-19 03:18 pmSSW 8.0 9.9----30.08- 74.8 73.8----
2024-07-19 03:12 pm S 8.9 11.1----30.09- 74.8 73.8----
2024-07-19 03:06 pmSSW 8.0 11.1----30.09- 75.0 73.8----
2024-07-19 03:00 pmSSW 8.9 11.1----30.09+0.00 74.7 73.8----
2024-07-19 02:54 pmSSW 8.9 11.1----30.09- 74.5 73.6----
2024-07-19 02:48 pmSSW 9.9 13.0----30.08- 73.8 73.4----
2024-07-19 02:42 pm SW 11.1 12.0----30.09- 73.8 73.4----
2024-07-19 02:36 pm SW 11.1 12.0----30.08- 73.4 73.4----
2024-07-19 02:30 pm SW 9.9 11.1----30.09- 73.8 73.4----
2024-07-19 02:24 pm SW 9.9 12.0----30.09- 73.2 73.2----
2024-07-19 02:18 pm SW 11.1 12.0----30.09- 73.0 73.2----
2024-07-19 02:12 pm SW 11.1 12.0----30.09- 73.2 73.0----
2024-07-19 02:06 pm SW 11.1 12.0----30.09- 73.0 73.0----
2024-07-19 02:00 pm SW 11.1 12.0----30.09+0.00 73.0 73.0----
2024-07-19 01:54 pm SW 11.1 12.0----30.09- 73.6 72.9----
2024-07-19 01:48 pm SW 9.9 12.0----30.09- 73.8 72.9----
2024-07-19 01:42 pm SW 9.9 12.0----30.09- 73.8 72.9----
2024-07-19 01:36 pm SW 9.9 12.0----30.09- 74.1 72.9----
2024-07-19 01:30 pm SW 9.9 11.1----30.09- 74.1 72.7----
2024-07-19 01:24 pm SW 8.9 9.9----30.09- 74.8 72.9----
2024-07-19 01:18 pmSSW 7.0 8.0----30.09- 75.9 72.9----
2024-07-19 01:12 pm SW 5.1 7.0----30.09- 76.1 72.9----
2024-07-19 01:06 pmSSW 4.1-----30.09- 77.7 72.9----
2024-07-19 01:00 pm SW 1.0 2.9----30.09+0.00 78.3 72.9----
2024-07-19 12:54 pm NE 1.9 6.0----30.09- 75.7 72.9----
2024-07-19 12:48 pm NE 2.9 6.0----30.09- 75.4 72.7----
2024-07-19 12:42 pmNNE 5.1 8.0----30.09- 75.0 72.7----
2024-07-19 12:36 pm N 4.1 8.9----30.09- 75.2 72.7----
2024-07-19 12:30 pm N 5.1 7.0----30.09- 74.8 72.5----
2024-07-19 12:24 pmNNE 5.1 8.0----30.09- 74.5 72.1----
2024-07-19 12:18 pm NE 5.1 8.0----30.09- 74.1 72.0----
2024-07-19 12:12 pmNNE 5.1 8.0----30.09- 74.1 71.8----
2024-07-19 12:06 pmNNE 5.1 8.9----30.09- 74.3 71.8----
2024-07-19 12:00 pmNNE 8.0 8.0----30.09+0.00 74.1 71.8----
2024-07-19 11:54 amNNE 6.0 8.9----30.09- 74.1 71.6----
2024-07-19 11:48 amNNE 5.1 7.0----30.09- 73.6 71.6----
2024-07-19 11:42 am N 5.1 8.0----30.09- 73.4 71.6----
2024-07-19 11:36 amNNE 5.1 8.0----30.09- 73.6 71.6----
2024-07-19 11:30 am N 5.1 8.9----30.09- 73.4 71.6----
2024-07-19 11:24 am N 5.1 8.9----30.09- 73.6 71.6----
2024-07-19 11:18 am N 6.0 8.0----30.09- 73.8 71.6----
2024-07-19 11:12 amNNE 5.1 8.9----30.09- 73.2 71.6----
2024-07-19 11:06 amNNW 6.0 7.0----30.09- 73.4 71.6----
2024-07-19 11:00 am N 4.1 8.0----30.09+0.01 72.9 71.6----
2024-07-19 10:54 am N 6.0 9.9----30.09- 72.7 71.6----
2024-07-19 10:48 am N 6.0 9.9----30.09- 72.7 71.6----
2024-07-19 10:42 am N 6.0 9.9----30.09- 72.9 71.6----
2024-07-19 10:36 am N 8.0 9.9----30.09- 72.1 71.6----
2024-07-19 10:30 am N 8.0 11.1----30.09- 72.3 71.8----
2024-07-19 10:24 am N 7.0 9.9----30.09- 72.3 71.8----
2024-07-19 10:18 am N 8.0 11.1----30.09- 72.1 72.0----
2024-07-19 10:12 am N 7.0 9.9----30.09- 72.1 71.8----
2024-07-19 10:06 am N 8.0 9.9----30.09- 72.3 71.8----
2024-07-19 10:00 am N 8.0 12.0----30.09+0.04 71.8 71.8----
2024-07-19 09:54 am N 7.0 12.0----30.08- 71.6 71.6----
2024-07-19 09:48 am N 8.0 11.1----30.08- 71.4 72.0----
2024-07-19 09:42 am N 7.0 11.1----30.08- 71.8 72.0----
2024-07-19 09:36 am N 8.0 12.0----30.08- 71.6 71.8----
2024-07-19 09:30 am N 7.0 12.0----30.08- 71.4 71.8----
2024-07-19 09:24 am N 7.0 13.0----30.08- 71.4 71.8----
2024-07-19 09:18 am N 7.0 13.0----30.08- 71.2 71.6----
2024-07-19 09:12 am N 8.0 13.0----30.08- 71.2 71.6----
2024-07-19 09:06 am N 8.9 12.0----30.08- 71.1 71.4----
2024-07-19 09:00 am N 9.9 13.0----30.08+0.06 70.5 71.4----
2024-07-19 08:54 am N 8.9 13.0----30.08- 70.9 71.4----
2024-07-19 08:48 am N 8.0 12.0----30.08- 70.5 71.2----
2024-07-19 08:42 am N 7.0 14.0----30.08- 70.7 71.2----
2024-07-19 08:36 am N 11.1 13.0----30.08- 70.3 71.2----
2024-07-19 08:30 am N 9.9 13.0----30.08- 70.5 71.2----
2024-07-19 08:24 am N 8.0 12.0----30.08- 70.5 71.2----
2024-07-19 08:18 am N 8.9 13.0----30.08- 70.2 71.2----
2024-07-19 08:12 am N 8.0 13.0----30.08- 70.3 71.1----
2024-07-19 08:06 am N 9.9 13.0----30.08- 70.0 71.1----
2024-07-19 08:00 am N 8.9 13.0----30.07+0.07 70.0 71.1----
2024-07-19 07:54 am N 8.9 13.0----30.07- 70.0 71.1----
2024-07-19 07:48 am N 9.9 13.0----30.07-- 71.1----
2024-07-19 07:42 am N 9.9 13.0----30.07-- 71.1----
2024-07-19 07:36 am N 8.9 12.0----30.06-- 70.7----
2024-07-19 07:30 am N 8.9 15.9----30.06- 69.4 70.0----
2024-07-19 07:24 am N 8.9 14.0----30.06- 69.6 70.5----
2024-07-19 07:18 am N 11.1 14.0----30.06- 69.4 70.5----
2024-07-19 07:12 am N 11.1 17.1----30.05- 69.4 71.4----
2024-07-19 07:06 am N 12.0 15.9----30.05- 69.6 71.6----
2024-07-19 07:00 am N 12.0 17.1----30.05+0.06 69.6 71.8----
2024-07-19 06:54 am N 8.9 13.0----30.05- 69.4 71.8----
2024-07-19 06:48 am N 9.9 13.0----30.04-- 71.8----
2024-07-19 06:42 am N 9.9 14.0----30.04-- 72.1----
2024-07-19 06:36 am N 9.9 15.0----30.03-- 72.1----
2024-07-19 06:30 am N 9.9 15.0----30.03- 69.6 72.1----
2024-07-19 06:24 am N 9.9 14.0----30.03- 69.6 72.1----
2024-07-19 06:18 am N 11.1 15.9----30.03- 69.6 72.3----
2024-07-19 06:12 am N 12.0 15.0----30.03- 69.4 72.3----
2024-07-19 06:06 am N 11.1 14.0----30.03- 69.4 72.3----
2024-07-19 06:00 am N 11.1 15.0----30.03+0.04 69.4 72.3----
2024-07-19 05:54 am N 8.0 15.0----30.03- 69.6 72.3----
2024-07-19 05:48 am N 7.0 9.9----30.02- 69.6 72.3----
2024-07-19 05:42 amNNE 6.0 11.1----30.02- 69.6 72.3----
2024-07-19 05:36 amNNE 7.0 12.0----30.02- 69.6 72.3----
2024-07-19 05:30 am N 11.1 17.1----30.02- 70.0 72.3----
2024-07-19 05:24 amNNE 12.0 14.0----30.01- 70.2 72.3----
2024-07-19 05:18 am N 11.1 19.0----30.01- 70.2 72.3----
2024-07-19 05:12 am N 12.0 17.1----30.01- 70.3 72.3----
2024-07-19 05:06 am N 8.9 14.0----30.01- 70.3 72.3----
2024-07-19 05:00 am N 8.9 15.0----30.00+0.03 70.3 72.3----
2024-07-19 04:54 am N 9.9 14.0----30.00- 70.5 72.5----
2024-07-19 04:48 am N 9.9 15.0----30.00- 70.5 72.5----
2024-07-19 04:42 am N 9.9 14.0----30.00- 70.7 72.5----
2024-07-19 04:36 am N 8.9 12.0----30.00- 70.9 72.5----
2024-07-19 04:30 am N 8.9 15.9----30.00- 70.9 72.5----
2024-07-19 04:24 am N 11.1 13.0----29.99- 71.2 72.5----
2024-07-19 04:18 am N 9.9 15.9----29.99- 71.2 72.5----
2024-07-19 04:12 am N 11.1 15.9----29.99- 71.4 72.5----
2024-07-19 04:06 am N 11.1 14.0----29.99- 71.6 72.5----
2024-07-19 04:00 am N 7.0 12.0----29.99+0.03 71.8 72.3----
2024-07-19 03:54 am N 8.0 13.0----29.99- 72.0 72.3----
2024-07-19 03:48 am N 8.0 12.0----29.99- 72.1 72.5----
2024-07-19 03:42 am N 7.0 12.0----29.99- 72.1 72.5----
2024-07-19 03:36 am N 6.0 13.0----29.98- 72.1 72.5----
2024-07-19 03:30 am N 8.0 15.9----29.98- 72.3 72.5----
2024-07-19 03:24 am N 8.0 14.0----29.98- 72.5 72.5----
2024-07-19 03:18 am N 11.1 15.0----29.98- 72.7 72.5----
2024-07-19 03:12 am N 9.9 15.0----29.98- 72.9 72.5----
2024-07-19 03:06 am N 7.0 15.0----29.98- 72.9 72.5----
2024-07-19 03:00 am N 8.9 11.1----29.98+0.02 72.5 72.5----
2024-07-19 02:54 amNNW 7.0 8.9----29.98- 72.5 72.5----
2024-07-19 02:48 amNNW 6.0 9.9----29.98- 72.3 72.5----
2024-07-19 02:42 amNNW 6.0 9.9----29.98- 72.3 72.7----
2024-07-19 02:36 amNNW 5.1 8.9----29.98- 72.3 72.7----
2024-07-19 02:30 am N 5.1 9.9----29.98- 72.3 72.9----
2024-07-19 02:24 am N 5.1 8.9----29.98- 72.5 72.9----
2024-07-19 02:18 am N 5.1 8.9----29.98- 72.5 72.9----
2024-07-19 02:12 am N 6.0 11.1----29.98- 72.7 72.9----
2024-07-19 02:06 am N 5.1 9.9----29.98- 72.7 72.9----
2024-07-19 02:00 am N 6.0 8.9----29.97+0.01 72.9 73.0----
2024-07-19 01:54 am N 5.1 8.9----29.97- 73.0 73.0----
2024-07-19 01:48 amNNW 5.1 8.9----29.97- 73.2-----
2024-07-19 01:42 amNNW 5.1 8.0----29.97- 73.4-----
2024-07-19 01:36 am N 5.1 9.9----29.97- 73.6-----
2024-07-19 01:30 amNNW 7.0 8.0----29.97- 73.8 73.4----
2024-07-19 01:24 amNNW 5.1 8.9----29.97- 74.1 73.4----
2024-07-19 01:18 amNNW 4.1 7.0----29.97- 74.1 73.4----
2024-07-19 01:12 amNNW 6.0 8.9----29.96- 74.3 73.4----
2024-07-19 01:06 amNNW 6.0 8.0----29.96- 74.3 73.6----
2024-07-19 01:00 am N 5.1 11.1----29.96+0.02 74.3 73.6----
2024-07-19 12:54 am N 5.1 9.9----29.96- 74.5 73.6----
2024-07-19 12:48 amNNW 4.1 8.9----29.97- 74.7 73.6----
2024-07-19 12:42 amNNW 4.1 9.9----29.96- 74.8 73.8----
2024-07-19 12:36 am NW 6.0 8.9----29.96- 75.0 73.8----
2024-07-19 12:30 am NW 6.0 12.0----29.96- 75.2 73.8----
2024-07-19 12:24 am NW 7.0 9.9----29.96- 75.2 73.9----
2024-07-19 12:18 am NW 5.1 8.0----29.96- 75.2 73.9----
2024-07-19 12:12 amNNW 5.1 8.0----29.96- 75.4 73.9----
2024-07-19 12:06 amNNW 5.1 8.0----29.96- 75.6 73.9----
2024-07-19 12:00 amNNW 4.1 9.9----29.96+0.03 75.7 73.9----
2024-07-18 11:54 pmNNW 6.0 9.9----29.96- 75.9 73.9----
2024-07-18 11:48 pmNNW 6.0 11.1----29.96- 76.1 73.9----
2024-07-18 11:42 pm NW 7.0 11.1----29.96- 76.5 74.1----
2024-07-18 11:36 pmNNW 6.0 11.1----29.96- 76.5 74.1----
2024-07-18 11:30 pm NW 8.0 11.1----29.96- 76.5 74.1----
2024-07-18 11:24 pm NW 6.0 9.9----29.96- 76.6 74.1----
2024-07-18 11:18 pm NW 8.0 11.1----29.96- 76.8 74.1----
2024-07-18 11:12 pm NW 9.9 11.1----29.96- 77.2 74.1----
2024-07-18 11:06 pm NW 8.0 12.0----29.96- 77.0 74.1----
2024-07-18 11:00 pm NW 8.0 11.1----29.96+0.05 77.2 74.1----
2024-07-18 10:54 pm NW 8.0 11.1----29.96- 77.4 74.1----
2024-07-18 10:48 pm NW 7.0 11.1----29.95- 77.2 74.3----
2024-07-18 10:42 pmNNW 7.0 11.1----29.95- 77.2 74.3----
2024-07-18 10:36 pmNNW 5.1 8.0----29.96- 77.2 74.3----
2024-07-18 10:30 pm NW 6.0 8.9----29.96- 77.4 74.3----
2024-07-18 10:24 pm NW 6.0 9.9----29.96- 77.2 74.3----
2024-07-18 10:18 pm NW 6.0 11.1----29.95- 77.4 74.1----
2024-07-18 10:12 pm NW 8.0 9.9----29.95- 77.5 74.1----
2024-07-18 10:06 pm NW 7.0 11.1----29.95- 77.5 73.9----
2024-07-18 10:00 pm NW 7.0 9.9----29.95+0.07 77.5 73.8----
2024-07-18 09:54 pm NW 7.0 9.9----29.95- 77.5 73.8----
2024-07-18 09:48 pm NW 7.0 8.9----29.95- 77.7 73.9----
2024-07-18 09:42 pm NW 7.0 8.9----29.94- 77.9 73.9----
2024-07-18 09:36 pm NW 8.0 11.1----29.94- 78.1 73.8----
2024-07-18 09:30 pm NW 8.0 11.1----29.94- 78.3 73.8----
2024-07-18 09:24 pm NW 8.0 12.0----29.94- 78.4 73.8----
2024-07-18 09:18 pm NW 6.0 9.9----29.94- 78.3 73.4----
2024-07-18 09:12 pm NW 7.0 9.9----29.93- 78.4 73.4----
2024-07-18 09:06 pm NW 7.0 9.9----29.93- 78.6 73.0----
2024-07-18 09:00 pm NW 7.0 12.0----29.93+0.06 78.8 73.0----
2024-07-18 08:54 pm NW 8.0 9.9----29.93- 79.0 72.9----
2024-07-18 08:48 pmNNW 4.1 8.0----29.93- 78.8 72.9----
2024-07-18 08:42 pm NW 5.1 8.0----29.93- 79.0 72.5----
2024-07-18 08:36 pm NW 5.1 8.9----29.93- 79.0 72.5----
2024-07-18 08:30 pm NW 7.0 8.9----29.93- 79.0 72.7----
2024-07-18 08:24 pm NW 5.1 8.0----29.92- 79.3 72.7----
2024-07-18 08:18 pm NW 5.1 8.0----29.92- 79.3 72.1----
2024-07-18 08:12 pm NW 5.1 8.0----29.92- 79.7 72.0----
2024-07-18 08:06 pm NW 5.1 7.0----29.91- 79.9 71.8----
2024-07-18 08:00 pmNNW 4.1 8.0----29.91+0.04 80.1 71.2----
2024-07-18 07:54 pm NW 6.0 9.9----29.91- 80.2 72.3----
2024-07-18 07:48 pm NW 7.0 8.9----29.90- 80.4 71.6----
2024-07-18 07:42 pm NW 6.0 8.9----29.90- 80.8 70.3----
2024-07-18 07:36 pm NW 7.0 11.1----29.90- 81.0 69.1----
2024-07-18 07:30 pm NW 8.0 13.0----29.90- 81.5 69.4----
2024-07-18 07:24 pm NW 9.9 14.0----29.89- 81.9 68.9----
2024-07-18 07:00 pmWNW 6.0 11.1----29.88+0.01 82.2 68.7----
2024-07-18 06:54 pm W 5.1 7.0----29.88- 82.0 67.6----
2024-07-18 06:48 pm W 5.1 8.0----29.88- 82.2 68.0----
2024-07-18 06:42 pm W 7.0 8.9----29.87- 82.2 68.5----
2024-07-18 06:36 pm W 7.0 7.0----29.87- 82.4 67.8----
2024-07-18 06:30 pm W 4.1 6.0----29.87- 82.0 68.0----
2024-07-18 06:24 pm W 5.1 7.0----29.87- 81.9 68.0----
2024-07-18 06:18 pm W 5.1 7.0----29.87- 82.0 68.2----
2024-07-18 06:12 pm W 5.1 6.0----29.87- 81.9 68.5----
2024-07-18 06:06 pm W 4.1 6.0----29.87- 81.3 68.5----
2024-07-18 06:00 pm W 4.1 4.1----29.87+0.00 82.0 69.1----
2024-07-18 05:54 pm W 2.9 5.1----29.87- 82.4 69.6----
2024-07-18 05:48 pm W 4.1 7.0----29.86- 82.9 70.2----
2024-07-18 05:42 pm W 5.1 8.0----29.87- 84.2 70.5----
2024-07-18 05:36 pm W 6.0 8.0----29.86- 84.2 71.1----
2024-07-18 05:30 pm W 6.0 8.0----29.86- 83.8 71.8----
2024-07-18 05:24 pmWNW 5.1 6.0----29.86- 83.8 72.1----
2024-07-18 05:18 pmWNW 2.9 8.0----29.86- 84.4 73.0----
2024-07-18 05:12 pmWNW 5.1 8.9----29.87- 83.8 73.4----
2024-07-18 05:06 pmWNW 6.0 9.9----29.87- 83.3 73.4----
2024-07-18 05:00 pmWNW 6.0 8.0----29.87+0.01 83.5 73.4----
2024-07-18 04:54 pm NW 6.0 7.0----29.87- 84.0 73.4----
2024-07-18 04:48 pm NW 6.0 8.0----29.87- 84.2 73.4----
2024-07-18 04:42 pmWNW 5.1 7.0----29.87- 84.7 73.8----
2024-07-18 04:36 pm NW 5.1 8.0----29.87- 84.2 73.9----
2024-07-18 04:30 pm NW 1.9 4.1----29.87- 84.6 73.8----
2024-07-18 04:24 pmWNW 2.9 5.1----29.87- 84.7 73.8----
2024-07-18 04:18 pm NW 4.1 5.1----29.86- 84.6 73.9----
2024-07-18 04:12 pm W 2.9 4.1----29.86- 84.0 73.9----
2024-07-18 04:06 pm W 4.1 5.1----29.86- 83.7 73.9----
2024-07-18 04:00 pm W 2.9 4.1----29.86-0.01 84.0 73.9----
2024-07-18 03:54 pm NW 2.9 5.1----29.87- 83.7 73.9----